• Join FlightAware (Why Join?)
  • Login
  • US Flag 
05:58PM EDT


 

Airport Tracker/Info


-or-


 

Live Flight TrackerFlight Track Log ✈ UAL6129 ✈ 09-May-2013 ✈ KCAE - KORD

Flight Track Log - Related Links

Times and Time Zones

All times are in EDT time to prevent confusion due to time zone crossing. See the UAL6129 flight status page for this flight to view local times or setup timezone preferences in your user account.

Time Position Orientation Groundspeed Altitude Reporting Facility
EDT Latitude Longitude Course Direction KTS MPH feet Rate Location/Type
05:43PM 33.9853 -81.3347 306° West 246 283 4,700  Level Jacksonville Center
05:44PM 34.0236 -81.3992 306° West 246 283 7,000 2,220 Climbing Jacksonville Center
05:45PM 34.0967 -81.4031 304° West 218 251 9,200 2,100 Climbing Jacksonville Center
05:46PM 34.1797 -81.4275 346° North 231 266 11,500 1,680 Climbing Atlanta Center
05:47PM 34.2472 -81.4656 335° Northwest 252 290 12,900 1,380 Climbing Atlanta Center
05:48PM 34.3256 -81.5108 334° Northwest 279 321 14,300 1,380 Climbing Atlanta Center
05:49PM 34.4036 -81.5564 334° Northwest 296 341 15,700 1,380 Climbing Atlanta Center
05:50PM 34.4792 -81.5769 347° North 308 354 17,100 1,320 Climbing Atlanta Center
05:51PM 34.5672 -81.5944 351° North 313 360 18,400 1,440 Climbing Atlanta Center
05:52PM 34.6678 -81.6167 350° North 318 366 20,000 1,560 Climbing Atlanta Center
05:53PM 34.7578 -81.6319 352° North 324 373 21,600 1,560 Climbing Atlanta Center
05:54PM 34.8458 -81.6522 349° North 319 367 23,200 1,500 Climbing Atlanta Center
05:55PM 34.9339 -81.6672 352° North 319 367 24,600 1,260 Climbing Atlanta Center
05:56PM 35.0239 -81.6850 351° North 319 367 25,800 1,140 Climbing Atlanta Center
05:57PM 35.1161 -81.7028 351° North 319 367 26,900 1,080 Climbing Atlanta Center
05:58PM 35.2083 -81.7231 350° North 331 381 28,000 960 Climbing Atlanta Center
05:59PM 35.2900 -81.7386 351° North 337 388 28,900 960 Climbing Atlanta Center
06:00PM 35.3819 -81.7564 351° North 332 382 30,000 1,080 Climbing Atlanta Center
06:01PM 35.4764 -81.7767 350° North 332 382 31,100 1,080 Climbing Atlanta Center
06:02PM 35.5706 -81.7919 352° North 332 382 32,200 900 Climbing Atlanta Center
06:03PM 35.6711 -81.8147 350° North 332 382 33,000 480 Climbing Atlanta Center
06:04PM 35.7692 -81.8300 353° North 341 392 33,200 300 Climbing Atlanta Center
06:05PM 35.8661 -81.8839 336° Northwest 355 409 33,700 360 Climbing Atlanta Center
06:06PM 35.9589 -81.9403 334° Northwest 374 430 34,000 300 Climbing Atlanta Center
06:07PM 36.0558 -81.9994 334° Northwest 381 438 34,400 600 Climbing Atlanta Center
06:08PM 36.1550 -82.0561 335° Northwest 387 445 35,200 780 Climbing Atlanta Center
06:09PM 36.2475 -82.1156 333° Northwest 382 440 36,000 360 Climbing Atlanta Center
06:10PM 36.3403 -82.1675 336° Northwest 368 423 36,000  Level Atlanta Center
06:12PM 36.5053 -82.2683 334° Northwest 393 452 36,000  Level Indianapolis Center
06:13PM 36.6139 -82.3342 334° Northwest 376 433 36,000  Level Indianapolis Center
06:14PM 36.7083 -82.3914 334° Northwest 376 433 36,000  Level Indianapolis Center
06:15PM 36.8053 -82.4508 334° Northwest 386 444 36,000  Level Indianapolis Center
06:16PM 36.9031 -82.5108 334° Northwest 391 450 36,000  Level Indianapolis Center
06:17PM 36.9983 -82.5689 334° Northwest 385 443 36,000  Level Indianapolis Center
06:18PM 37.1078 -82.6361 334° Northwest 380 437 36,000  Level Indianapolis Center
06:19PM 37.2017 -82.6950 333° Northwest 379 436 36,000  Level Indianapolis Center
06:20PM 37.2956 -82.7550 333° Northwest 380 437 36,000  Level Indianapolis Center
06:21PM 37.3919 -82.8136 334° Northwest 383 441 36,000  Level Indianapolis Center
06:22PM 37.5039 -82.8842 333° Northwest 387 445 36,000  Level Indianapolis Center
06:23PM 37.6011 -82.9450 334° Northwest 389 448 36,000  Level Indianapolis Center
06:24PM 37.6983 -83.0064 333° Northwest 389 448 36,000  Level Indianapolis Center
06:26PM 37.7950 -83.0686 333° Northwest 390 449 36,000  Level Indianapolis Center
06:27PM 37.8864 -83.1253 334° Northwest 367 422 36,000  Level Indianapolis Center
06:29PM 38.0819 -83.2511 333° Northwest 369 425 36,000  Level Indianapolis Center
06:30PM 38.1778 -83.3114 334° Northwest 381 438 36,000  Level Indianapolis Center
06:31PM 38.2747 -83.3728 334° Northwest 388 447 36,000  Level Indianapolis Center
06:32PM 38.3472 -83.4717 313° West 385 443 36,000  Level Indianapolis Center
06:33PM 38.3869 -83.5989 292° West 386 444 36,000  Level Indianapolis Center
06:34PM 38.4339 -83.7425 293° West 376 433 36,000  Level Indianapolis Center
06:35PM 38.4744 -83.8711 292° West 386 444 36,000  Level Indianapolis Center
06:36PM 38.5178 -84.0008 293° West 394 453 36,000  Level Indianapolis Center
06:37PM 38.6033 -84.0758 326° Northwest 381 438 36,000  Level Indianapolis Center
06:38PM 38.7039 -84.1217 340° North 387 445 36,000  Level Indianapolis Center
06:39PM 38.8258 -84.1772 340° North 394 453 36,000  Level Indianapolis Center
06:40PM 38.9333 -84.2272 340° North 403 464 36,000  Level Indianapolis Center
06:41PM 39.0406 -84.2761 341° North 403 464 36,000 -60 Level Indianapolis Center
06:42PM 39.1475 -84.3231 341° North 402 463 35,900  Descending Indianapolis Center
06:43PM 39.2531 -84.3728 340° North 398 458 36,000  Climbing Indianapolis Center
06:44PM 39.3581 -84.4214 340° North 395 455 36,000 -60 Level Indianapolis Center
06:45PM 39.4650 -84.4714 340° North 401 461 35,900  Descending Indianapolis Center
06:46PM 39.5706 -84.5203 340° North 399 459 36,000  Climbing Indianapolis Center
06:47PM 39.6933 -84.5656 344° North 393 452 36,000  Level Indianapolis Center
06:48PM 39.8061 -84.5419 North 404 465 36,000  Level Indianapolis Center
06:49PM 39.9197 -84.5128 11° North 409 471 36,000  Level Indianapolis Center
06:50PM 40.0386 -84.4853 10° North 423 487 36,000  Level Indianapolis Center
06:51PM 40.1558 -84.4564 11° North 425 489 36,000 -60 Level Indianapolis Center
06:52PM 40.2669 -84.4300 10° North 406 467 35,900 -660 Descending Indianapolis Center
06:53PM 40.3811 -84.4011 11° North 411 473 34,700 -1,020 Descending Indianapolis Center
06:54PM 40.4878 -84.4372 346° North 397 457 33,900 -360 Descending Indianapolis Center
06:55PM 40.5581 -84.5394 312° West 377 434 34,000  Climbing Indianapolis Center
06:57PM 40.6411 -84.6653 311° West 386 444 34,000  Level Indianapolis Center
06:57PM 40.6814 -84.7286 310° West 388 447 34,000  Level Chicago Center
06:58PM 40.7408 -84.8492 303° West 392 451 34,000  Level Chicago Center
06:59PM 40.7981 -84.9739 301° West 395 455 34,000  Level Chicago Center
07:00PM 40.8664 -85.1225 301° West 395 455 34,000  Level Chicago Center
07:01PM 40.9228 -85.2436 302° West 389 448 34,000 -420 Level Chicago Center
07:02PM 40.9783 -85.3639 301° West 385 443 33,200 -1,440 Descending Chicago Center
07:03PM 41.0356 -85.4900 301° West 394 453 31,100 -2,040 Descending Chicago Center
07:04PM 41.0942 -85.6181 301° West 404 465 29,000 -2,160 Descending Chicago Center
07:05PM 41.1531 -85.7456 302° West 405 466 26,700 -1,980 Descending Chicago Center
07:07PM 41.2111 -85.8769 300° West 408 470 25,000 -840 Descending Chicago Center
07:08PM 41.2811 -86.0350 301° West 411 473 25,000  Level Chicago Center
07:09PM 41.3194 -86.1769 290° West 407 468 25,000 -360 Level Chicago Center
07:10PM 41.3550 -86.3225 288° West 412 474 24,300 -1,200 Descending Chicago Center
07:11PM 41.3900 -86.4611 289° West 398 458 22,600 -1,920 Descending Chicago Center
07:12PM 41.4228 -86.5908 289° West 374 430 20,400 -2,160 Descending Chicago Center
07:13PM 41.4575 -86.7325 288° West 368 423 18,200 -1,920 Descending Chicago Center
07:14PM 41.4867 -86.8531 288° West 350 403 16,500 -1,680 Descending Chicago Center
07:15PM 41.5172 -86.9781 288° West 355 409 14,800 -1,800 Descending Chicago Center
07:16PM 41.5525 -87.1258 288° West 352 405 12,800 -1,920 Descending Chicago Center
07:17PM 41.5833 -87.2500 288° West 361 415 10,800 -1,380 Descending Chicago TRACON
07:18PM 41.6450 -87.3475 310° West 356 410 10,000 -420 Descending Chicago Center
07:19PM 41.6986 -87.4483 305° West 341 392 10,000 -720 Level Chicago Center
07:20PM 41.7306 -87.5458 294° West 294 338 8,600 -1,560 Descending Chicago Center
07:21PM 41.7667 -87.6500 295° West 284 327 7,000 -900 Descending Chicago TRACON
07:22PM 41.8000 -87.7500 294° West 280 322 6,900  Descending Chicago TRACON
07:23PM 41.8833 -87.7500 360° North 267 307 7,100  Climbing Chicago TRACON
07:24PM 41.9500 -87.7667 349° North 259 298 7,000 -240 Descending Chicago TRACON
07:25PM 42.0000 -87.7333 26° Northeast 222 255 6,700 -900 Descending Chicago TRACON
07:26PM 42.0667 -87.6833 29° Northeast 227 261 5,300 -1,200 Descending Chicago TRACON
07:27PM 42.1167 -87.6500 26° Northeast 223 257 4,300 -900 Descending Chicago TRACON
07:27PM 42.1308 -87.6500 360° North 226 260 4,100 -180 Descending Chicago Center
07:28PM 42.1619 -87.7094 305° West 206 237 4,100 -180 Level Chicago Center
07:29PM 42.1267 -87.7536 223° Southwest 188 216 3,800 -480 Descending Chicago Center
07:30PM 42.1000 -87.7833 220° Southwest 185 213 3,400 -960 Descending Chicago TRACON
07:31PM 42.0667 -87.8167 217° Southwest 175 201 2,400 -900 Descending Chicago TRACON
07:32PM 42.0333 -87.8667 228° Southwest 136 157 1,600 -780 Descending Chicago TRACON
07:33PM 42.0000 -87.8833 200° South 138 159 900 -720 Descending Chicago TRACON
07:35PM 41.9817 -87.9067 217° Southwest  Level Estimated